This demonstration page uses our WeatherBlox Daily Observations layout. Learn more.

39.29038, -76.61219

Hourly Observations for December 12, 2019

Temp ( °F °C ) Dew Point ( °F °C ) Humidity (%) Winds ( mph kmh ) Pressure ( in mb ) Visibility ( mi km ) Precip ( " mm )
12:54 am 00:54 undefined 32 0 16 -8.9 52 52 undefined N/A 30.58 1036 N/A 0 0
1:54 am 01:54 undefined 32 0 16 -8.9 52 52 undefined N/A 30.6 1036 N/A 0 0
2:54 am 02:54 undefined 32 0 17 -8.3 54 54 undefined N/A 30.63 1037 N/A 0 0
3:54 am 03:54 undefined 32 0 17 -8.3 54 54 undefined N/A 30.63 1037 N/A 0 0
4:54 am 04:54 undefined 31 -0.6 16 -8.9 54 54 undefined N/A 30.65 1038 N/A 0 0
5:54 am 05:54 undefined 30 -1.1 14 -10 51 51 undefined N/A 30.68 1039 N/A 0 0
6:54 am 06:54 undefined 30 -1.1 13 -10.6 49 49 undefined N/A 30.75 1041 N/A 0 0
7:54 am 07:54 undefined 30 -1.1 12 -11.1 47 47 undefined N/A 30.72 1040 N/A 0 0
8:54 am 08:54 undefined 31 -0.6 13 -10.6 47 47 undefined N/A 30.72 1040 N/A 0 0
9:54 am 09:54 undefined 33 0.6 12 -11.1 42 42 undefined N/A 30.77 1042 N/A 0 0
10:54 am 10:54 undefined 37 2.8 14 -10 39 39 undefined N/A 30.8 1043 N/A 0 0
11:54 am 11:54 undefined 37 2.8 14 -10 39 39 undefined N/A 30.76 1042 N/A 0 0
12:54 pm 12:54 undefined 36 2.2 15 -9.4 42 42 undefined N/A 30.73 1041 N/A 0 0
1:54 pm 13:54 undefined 37 2.8 15 -9.4 41 41 undefined N/A 30.69 1039 N/A 0 0
2:54 pm 14:54 undefined 36 2.2 16 -8.9 44 44 undefined N/A 30.64 1038 N/A 0 0
3:54 pm 15:54 undefined 35 1.7 13 -10.6 40 40 undefined N/A 30.65 1038 N/A 0 0
4:54 pm 16:54 undefined 35 1.7 16 -8.9 46 46 undefined N/A 30.64 1038 N/A 0 0
5:54 pm 17:54 undefined 35 1.7 16 -8.9 46 46 undefined N/A 30.66 1038 N/A 0 0
6:54 pm 18:54 undefined 34 1.1 18 -7.8 52 52 undefined N/A 30.66 1038 N/A 0 0
7:54 pm 19:54 undefined 34 1.1 18 -7.8 52 52 undefined N/A 30.63 1037 N/A 0 0
8:54 pm 20:54 undefined 34 1.1 21 -6.1 59 59 undefined N/A 30.63 1037 N/A 0 0
9:54 pm 21:54 undefined 34 1.1 23 -5 64 64 undefined N/A 30.6 1036 N/A 0 0
10:54 pm 22:54 undefined 34 1.1 25 -3.9 70 70 undefined N/A 30.58 1036 N/A 0 0
11:54 pm 23:54 undefined 34 1.1 26 -3.3 73 73 undefined N/A 30.55 1035 N/A 0 0

Powered by AerisWeather